When you browse on this site, cookies collect data to enhance your experience and personalize the content and advertising you see.
Visit our Privacy Policy to learn more. By continuing to use the site, you agree to this use of cookies and data.
  • Em Portugal
  • Lista de países
  • Para 7 dias
  • Temperatura da água
  • Mapas de satélite
  • Mapa do tempo
  • Widgets de tempo
  • user-avatar
    Iniciar Sessão

    Previsão horária em Laszkar Gah

    Hoje, 22 Julho, Segunda-feira

    Tempo Temperatura Precipitação Vento Pressão Humidade
    00:00 +34°C° 0 mm 3 m/s 685 mmHg 19%
    01:00 +34°C° 0 mm 4 m/s 685 mmHg 24%
    02:00 +33°C° 0 mm 4 m/s 685 mmHg 27%
    03:00 +31°C° 0 mm 3 m/s 685 mmHg 31%
    04:00 +30°C° 0 mm 3 m/s 685 mmHg 31%
    05:00 +31°C° 0 mm 3 m/s 686 mmHg 30%
    06:00 +33°C° 0 mm 4 m/s 686 mmHg 29%
    07:00 +35°C° 0 mm 4 m/s 687 mmHg 28%
    08:00 +37°C° 0 mm 4 m/s 687 mmHg 24%
    09:00 +40°C° 0 mm 4 m/s 687 mmHg 21%
    10:00 +43°C° 0 mm 5 m/s 687 mmHg 17%
    11:00 +44°C° 0 mm 4 m/s 687 mmHg 15%
    12:00 +45°C° 0 mm 3 m/s 687 mmHg 13%
    13:00 +46°C° 0 mm 2 m/s 686 mmHg 11%
    14:00 +47°C° 0 mm 2 m/s 685 mmHg 10%
    15:00 +47°C° 0 mm 2 m/s 685 mmHg 10%
    16:00 +48°C° 0 mm 2 m/s 684 mmHg 9%
    17:00 +46°C° 0 mm 2 m/s 684 mmHg 10%
    18:00 +44°C° 0 mm 3 m/s 683 mmHg 11%
    19:00 +42°C° 0 mm 3 m/s 683 mmHg 11%
    20:00 +40°C° 0 mm 3 m/s 683 mmHg 12%
    21:00 +38°C° 0 mm 3 m/s 684 mmHg 12%
    22:00 +37°C° 0 mm 3 m/s 684 mmHg 13%
    23:00 +36°C° 0 mm 4 m/s 684 mmHg 15%

    Amanhã, 23 Julho, Terça-feira

    Tempo Temperatura Precipitação Vento Pressão Humidade
    00:00 +35°C° 0 mm 5 m/s 684 mmHg 17%
    01:00 +34°C° 0 mm 6 m/s 684 mmHg 19%
    02:00 +33°C° 0 mm 5 m/s 684 mmHg 25%
    03:00 +32°C° 0 mm 4 m/s 684 mmHg 32%
    04:00 +30°C° 0 mm 3 m/s 684 mmHg 38%
    05:00 +32°C° 0 mm 4 m/s 685 mmHg 36%
    06:00 +34°C° 0 mm 4 m/s 686 mmHg 35%
    07:00 +35°C° 0 mm 5 m/s 687 mmHg 33%
    08:00 +38°C° 0 mm 4 m/s 687 mmHg 28%
    09:00 +41°C° 0 mm 4 m/s 687 mmHg 24%
    10:00 +43°C° 0 mm 4 m/s 687 mmHg 19%
    11:00 +44°C° 0 mm 4 m/s 687 mmHg 16%
    12:00 +47°C° 0 mm 4 m/s 687 mmHg 14%
    13:00 +48°C° 0 mm 5 m/s 686 mmHg 11%
    14:00 +48°C° 0 mm 4 m/s 686 mmHg 10%
    15:00 +49°C° 0 mm 4 m/s 685 mmHg 8%
    16:00 +48°C° 0 mm 3 m/s 685 mmHg 7%
    17:00 +45°C° 0 mm 3 m/s 685 mmHg 8%
    18:00 +42°C° 0 mm 2 m/s 684 mmHg 9%
    19:00 +39°C° 0 mm 2 m/s 684 mmHg 10%
    20:00 +38°C° 0 mm 3 m/s 684 mmHg 10%
    21:00 +38°C° 0 mm 4 m/s 685 mmHg 11%
    22:00 +37°C° 0 mm 5 m/s 685 mmHg 11%
    23:00 +36°C° 0 mm 4 m/s 685 mmHg 11%

    Depois de amanhã, 24 Julho, Quarta-feira

    Tempo Temperatura Precipitação Vento Pressão Humidade
    00:00 +35°C° 0 mm 3 m/s 684 mmHg 12%
    01:00 +34°C° 0 mm 2 m/s 684 mmHg 13%
    02:00 +33°C° 0 mm 3 m/s 684 mmHg 13%
    03:00 +33°C° 0 mm 4 m/s 684 mmHg 14%
    04:00 +32°C° 0 mm 5 m/s 684 mmHg 15%
    05:00 +33°C° 0 mm 5 m/s 685 mmHg 16%
    06:00 +34°C° 0 mm 4 m/s 685 mmHg 18%
    07:00 +34°C° 0 mm 4 m/s 686 mmHg 20%
    08:00 +37°C° 0 mm 4 m/s 686 mmHg 16%
    09:00 +40°C° 0 mm 3 m/s 686 mmHg 11%
    10:00 +43°C° 0 mm 3 m/s 687 mmHg 7%
    11:00 +45°C° 0 mm 4 m/s 686 mmHg 6%
    12:00 +48°C° 0 mm 5 m/s 686 mmHg 5%
    13:00 +49°C° 0 mm 6 m/s 686 mmHg 4%
    14:00 +50°C° 0 mm 7 m/s 685 mmHg 3%
    15:00 +50°C° 0 mm 7 m/s 685 mmHg 3%
    16:00 +50°C° 0 mm 7 m/s 684 mmHg 3%
    17:00 +46°C° 0 mm 7 m/s 684 mmHg 4%
    18:00 +44°C° 0 mm 6 m/s 684 mmHg 5%
    19:00 +41°C° 0 mm 5 m/s 683 mmHg 5%
    20:00 +38°C° 0 mm 4 m/s 683 mmHg 7%
    21:00 +36°C° 0 mm 4 m/s 683 mmHg 8%
    22:00 +35°C° 0 mm 3 m/s 683 mmHg 9%
    23:00 +34°C° 0 mm 3 m/s 683 mmHg 10%

    25 Julho, Quinta-feira

    Tempo Temperatura Precipitação Vento Pressão Humidade
    00:00 +33°C° 0 mm 3 m/s 682 mmHg 10%
    01:00 +31°C° 0 mm 2 m/s 682 mmHg 11%
    02:00 +30°C° 0 mm 2 m/s 682 mmHg 11%
    03:00 +29°C° 0 mm 2 m/s 682 mmHg 12%
    04:00 +28°C° 0 mm 1 m/s 682 mmHg 13%
    05:00 +30°C° 0 mm 2 m/s 683 mmHg 12%
    06:00 +33°C° 0 mm 3 m/s 683 mmHg 10%
    07:00 +35°C° 0 mm 3 m/s 684 mmHg 9%
    08:00 +37°C° 0 mm 3 m/s 684 mmHg 8%
    09:00 +40°C° 0 mm 4 m/s 685 mmHg 8%
    10:00 +42°C° 0 mm 4 m/s 685 mmHg 7%
    11:00 +44°C° 0 mm 4 m/s 685 mmHg 6%
    12:00 +46°C° 0 mm 3 m/s 684 mmHg 6%
    13:00 +47°C° 0 mm 3 m/s 684 mmHg 5%
    14:00 +48°C° 0 mm 3 m/s 683 mmHg 5%
    15:00 +48°C° 0 mm 3 m/s 683 mmHg 4%
    16:00 +48°C° 0 mm 3 m/s 682 mmHg 4%
    17:00 +45°C° 0 mm 3 m/s 682 mmHg 5%
    18:00 +43°C° 0 mm 3 m/s 681 mmHg 6%
    19:00 +39°C° 0 mm 3 m/s 681 mmHg 7%
    20:00 +37°C° 0 mm 2 m/s 681 mmHg 8%
    21:00 +36°C° 0 mm 2 m/s 681 mmHg 8%
    22:00 +35°C° 0 mm 2 m/s 681 mmHg 9%
    23:00 +34°C° 0 mm 2 m/s 680 mmHg 9%

    26 Julho, Sexta-feira

    Tempo Temperatura Precipitação Vento Pressão Humidade
    00:00 +32°C° 0 mm 2 m/s 680 mmHg 10%
    01:00 +32°C° 0 mm 2 m/s 680 mmHg 10%
    02:00 +31°C° 0 mm 2 m/s 680 mmHg 12%
    03:00 +30°C° 0 mm 2 m/s 680 mmHg 14%
    04:00 +29°C° 0 mm 2 m/s 680 mmHg 16%
    05:00 +30°C° 0 mm 3 m/s 681 mmHg 15%
    06:00 +33°C° 0 mm 4 m/s 682 mmHg 15%
    07:00 +35°C° 0 mm 4 m/s 682 mmHg 14%
    08:00 +37°C° 0 mm 4 m/s 683 mmHg 13%
    09:00 +40°C° 0 mm 4 m/s 683 mmHg 12%
    10:00 +42°C° 0 mm 3 m/s 683 mmHg 11%
    11:00 +44°C° 0 mm 3 m/s 683 mmHg 10%
    12:00 +45°C° 0 mm 3 m/s 682 mmHg 8%
    13:00 +47°C° 0 mm 3 m/s 682 mmHg 7%
    14:00 +47°C° 0 mm 3 m/s 682 mmHg 7%
    15:00 +49°C° 0 mm 4 m/s 681 mmHg 6%
    16:00 +49°C° 0 mm 4 m/s 681 mmHg 6%
    17:00 +45°C° 0 mm 4 m/s 681 mmHg 7%
    18:00 +43°C° 0 mm 3 m/s 680 mmHg 8%
    19:00 +39°C° 0 mm 3 m/s 680 mmHg 9%
    20:00 +38°C° 0 mm 2 m/s 680 mmHg 10%
    21:00 +37°C° 0 mm 2 m/s 681 mmHg 11%
    22:00 +36°C° 0 mm 2 m/s 681 mmHg 11%
    23:00 +36°C° 0 mm 2 m/s 681 mmHg 11%

    27 Julho, Sábado

    Tempo Temperatura Precipitação Vento Pressão Humidade
    00:00 +35°C° 0 mm 3 m/s 681 mmHg 12%
    01:00 +35°C° 0 mm 3 m/s 682 mmHg 12%
    02:00 +34°C° 0 mm 4 m/s 682 mmHg 15%
    03:00 +33°C° 0 mm 4 m/s 682 mmHg 18%
    04:00 +32°C° 0 mm 5 m/s 682 mmHg 21%
    05:00 +34°C° 0 mm 5 m/s 683 mmHg 23%
    06:00 +35°C° 0 mm 6 m/s 683 mmHg 25%
    07:00 +38°C° 0 mm 6 m/s 684 mmHg 27%
    08:00 +40°C° 0 mm 6 m/s 684 mmHg 24%
    09:00 +42°C° 0 mm 5 m/s 685 mmHg 21%
    10:00 +45°C° 0 mm 5 m/s 685 mmHg 18%
    11:00 +45°C° 0 mm 4 m/s 685 mmHg 16%
    12:00 +47°C° 0 mm 4 m/s 684 mmHg 13%
    13:00 +48°C° 0 mm 3 m/s 684 mmHg 11%
    14:00 +48°C° 0 mm 3 m/s 683 mmHg 10%
    15:00 +48°C° 0 mm 2 m/s 683 mmHg 10%
    16:00 +47°C° 0 mm 2 m/s 683 mmHg 10%
    17:00 +45°C° 0 mm 2 m/s 682 mmHg 11%
    18:00 +42°C° 0 mm 2 m/s 682 mmHg 12%
    19:00 +40°C° 0 mm 3 m/s 681 mmHg 14%
    20:00 +38°C° 0 mm 4 m/s 682 mmHg 18%
    21:00 +38°C° 0 mm 6 m/s 683 mmHg 23%
    22:00 +36°C° 0 mm 7 m/s 683 mmHg 27%
    23:00 +35°C° 0 mm 6 m/s 683 mmHg 31%
    Mostrar mais